CCA961 ZBAA-EDDM

Flight info

Callsign CCA961
Flight time N/A
Altitude 32100
Route IDKEX5Y IDKEX B339 ASILA A575 INTIK Y655 SEBRA/K0898S1040 Y655 AROGU A575 DARNO/K0898F340 P982 TR A308 ABK R104 BA R229 XV B228 LITUN N869 AGMUS/K0893F360 N869 UNISO L870 RANVA/N0482F360 L870 RESMO DCT LOGNA DCT KEDUX/N0477F380 DCT BALIT/K0883F380 DCT KUNER/N0477F380 DCT BEZMI DCT GOVEN DCT MAREM DCT BALTU DCT VESUB/N0487F340 T106 TUSTO T108 LANDU LANDU2B
Aircraft B77W/H-SDE1E2E3FGHIJ2J3J4J5M1RWXY/LB1D1

Departure

Time N/A
Airport Beijing Capital International Airport (ZBAA)

Arrival

Time 2026-05-04 05:04
Airport Munich Airport (EDDM)
Time Latitude Longitude Altitude Speed Heading
2026-05-03 20:15 46.03348 108.23832 31842 ft 451 kts 310°
2026-05-03 20:15 46.07380 108.16888 31840 ft 452 kts 310°
2026-05-03 20:16 46.11377 108.09988 31843 ft 451 kts 310°
2026-05-03 20:16 46.15385 108.03048 31841 ft 450 kts 309°
2026-05-03 20:17 46.19394 107.96093 31846 ft 451 kts 309°
2026-05-03 20:17 46.23393 107.89136 31842 ft 451 kts 309°
2026-05-03 20:18 46.27362 107.82215 31837 ft 450 kts 309°
2026-05-03 20:18 46.31345 107.75250 31840 ft 449 kts 309°
2026-05-03 20:19 46.35322 107.68280 31845 ft 449 kts 309°
2026-05-03 20:19 46.39294 107.61301 31843 ft 449 kts 309°
2026-05-03 20:20 46.43231 107.54366 31847 ft 448 kts 309°
2026-05-03 20:20 46.47187 107.47379 31840 ft 448 kts 309°
2026-05-03 20:21 46.51136 107.40386 31837 ft 448 kts 309°
2026-05-03 20:21 46.55080 107.33386 31840 ft 448 kts 309°
2026-05-03 20:22 46.58989 107.26429 31833 ft 447 kts 309°
2026-05-03 20:22 46.62920 107.19416 31831 ft 447 kts 308°
2026-05-03 20:23 46.66848 107.12389 31829 ft 447 kts 308°
2026-05-03 20:23 46.70775 107.05349 31831 ft 447 kts 308°
2026-05-03 20:24 46.74687 106.98314 31830 ft 447 kts 308°
2026-05-03 20:24 46.78596 106.91268 31831 ft 447 kts 308°
2026-05-03 20:25 46.82473 106.84264 31833 ft 446 kts 308°
2026-05-03 20:25 46.86350 106.77177 31826 ft 446 kts 308°
2026-05-03 20:26 46.90185 106.70042 31824 ft 446 kts 307°
2026-05-03 20:26 46.93983 106.62955 31814 ft 446 kts 307°
2026-05-03 20:27 46.97808 106.55811 31805 ft 445 kts 307°
2026-05-03 20:27 47.01633 106.48656 32257 ft 445 kts 307°
2026-05-03 20:27 47.03532 106.45099 32699 ft 441 kts 307°
2026-05-03 20:28 47.05414 106.41568 33100 ft 438 kts 307°
2026-05-03 20:28 47.07287 106.38050 33469 ft 437 kts 308°
2026-05-03 20:28 47.09126 106.34589 33715 ft 436 kts 308°
2026-05-03 20:29 47.12857 106.27558 33793 ft 437 kts 308°
2026-05-03 20:29 47.16585 106.20513 33791 ft 437 kts 307°
2026-05-03 20:30 47.20281 106.13512 33792 ft 436 kts 307°
2026-05-03 20:30 47.23994 106.06460 33794 ft 436 kts 307°
2026-05-03 20:31 47.27707 105.99388 33790 ft 436 kts 307°
2026-05-03 20:31 47.31417 105.92306 33783 ft 436 kts 307°
2026-05-03 20:32 47.35094 105.85268 33784 ft 436 kts 307°
2026-05-03 20:32 47.38789 105.78178 33777 ft 436 kts 307°
2026-05-03 20:33 47.42484 105.71070 33766 ft 436 kts 307°
2026-05-03 20:33 47.46172 105.63954 33759 ft 436 kts 307°
2026-05-03 20:34 47.49834 105.56872 33753 ft 436 kts 307°
2026-05-03 20:34 47.53514 105.49738 33754 ft 436 kts 307°
2026-05-03 20:35 47.57207 105.42613 33743 ft 436 kts 308°
2026-05-03 20:35 47.60914 105.35504 33733 ft 435 kts 308°
2026-05-03 20:36 47.64580 105.28448 33740 ft 435 kts 308°
2026-05-03 20:36 47.68270 105.21320 33736 ft 436 kts 308°
2026-05-03 20:37 47.71959 105.14172 33726 ft 435 kts 308°
2026-05-03 20:37 47.75634 105.07033 33731 ft 434 kts 308°
2026-05-03 20:38 47.79277 104.99940 33734 ft 435 kts 307°
2026-05-03 20:38 47.82897 104.92730 33725 ft 435 kts 307°
2026-05-03 20:39 47.86466 104.85483 33719 ft 434 kts 307°
2026-05-03 20:39 47.90031 104.78231 33719 ft 434 kts 307°
2026-05-03 20:40 47.93594 104.70981 33711 ft 434 kts 307°
2026-05-03 20:40 47.97130 104.63776 33712 ft 433 kts 307°
2026-05-03 20:41 48.00684 104.56518 33706 ft 432 kts 306°
2026-05-03 20:41 48.04225 104.49266 33709 ft 432 kts 306°
2026-05-03 20:42 48.07769 104.41989 33710 ft 433 kts 306°
2026-05-03 20:42 48.11281 104.34755 33711 ft 432 kts 306°
2026-05-03 20:43 48.14809 104.27471 33712 ft 432 kts 306°
2026-05-03 20:43 48.18336 104.20172 33706 ft 433 kts 306°
2026-05-03 20:44 48.21861 104.12853 33708 ft 433 kts 306°
2026-05-03 20:44 48.25359 104.05574 33691 ft 433 kts 306°
2026-05-03 20:45 48.28871 103.98244 33692 ft 433 kts 306°
2026-05-03 20:45 48.32381 103.90898 33689 ft 432 kts 306°
2026-05-03 20:46 48.35878 103.83561 33681 ft 431 kts 306°
2026-05-03 20:46 48.39343 103.76270 33687 ft 431 kts 306°
2026-05-03 20:47 48.42827 103.68920 33681 ft 431 kts 306°
2026-05-03 20:47 48.46302 103.61568 33689 ft 430 kts 306°
2026-05-03 20:48 48.49764 103.54224 33689 ft 429 kts 306°
2026-05-03 20:48 48.53191 103.46933 33687 ft 429 kts 305°
2026-05-03 20:49 48.56634 103.39593 33694 ft 428 kts 305°
2026-05-03 20:49 48.60089 103.32295 33679 ft 427 kts 306°
2026-05-03 20:50 48.63653 103.25186 33687 ft 427 kts 307°
2026-05-03 20:50 48.67255 103.18048 33678 ft 426 kts 307°
2026-05-03 20:51 48.70827 103.10903 33682 ft 424 kts 307°
2026-05-03 20:51 48.74370 103.03767 33677 ft 424 kts 307°
2026-05-03 20:52 48.77884 102.96665 33683 ft 424 kts 306°
2026-05-03 20:52 48.81414 102.89509 33679 ft 423 kts 306°
2026-05-03 20:53 48.84930 102.82364 33671 ft 421 kts 306°
2026-05-03 20:53 48.88425 102.75244 33672 ft 420 kts 306°
2026-05-03 20:54 48.91886 102.68173 33669 ft 420 kts 306°
2026-05-03 20:54 48.97103 102.57481 33672 ft 419 kts 306°
2026-05-03 20:55 49.00573 102.50345 33673 ft 419 kts 306°
2026-05-03 20:55 49.04008 102.43264 33678 ft 418 kts 306°
2026-05-03 20:56 49.07459 102.36128 33682 ft 418 kts 306°
2026-05-03 20:56 49.10893 102.29009 33670 ft 416 kts 306°
2026-05-03 20:57 49.14316 102.21897 33679 ft 416 kts 305°
2026-05-03 20:57 49.17712 102.14823 33684 ft 415 kts 305°
2026-05-03 20:58 49.20678 102.07264 33679 ft 415 kts 297°
2026-05-03 20:58 49.22905 101.99131 33684 ft 415 kts 291°
2026-05-03 20:59 49.24895 101.90853 33674 ft 414 kts 291°
2026-05-03 20:59 49.26864 101.82647 33677 ft 414 kts 291°
2026-05-03 21:00 49.28520 101.75773 33684 ft 414 kts 291°
2026-05-03 21:00 49.30851 101.66082 33678 ft 414 kts 291°
2026-05-03 21:01 49.32822 101.57861 33680 ft 413 kts 291°
2026-05-03 21:01 49.34797 101.49590 33683 ft 413 kts 291°
2026-05-03 21:02 49.36766 101.41317 33667 ft 413 kts 291°
2026-05-03 21:02 49.38728 101.33038 33680 ft 413 kts 291°
2026-05-03 21:03 49.40674 101.24796 33675 ft 413 kts 291°
2026-05-03 21:03 49.42621 101.16518 33688 ft 412 kts 291°
2026-05-03 21:04 49.44559 101.08246 33696 ft 411 kts 291°
2026-05-03 21:04 49.46492 100.99969 33695 ft 412 kts 291°
2026-05-03 21:05 49.48409 100.91723 33701 ft 413 kts 291°
2026-05-03 21:05 49.50328 100.83406 33693 ft 412 kts 290°
2026-05-03 21:06 49.52241 100.75080 33693 ft 412 kts 290°
2026-05-03 21:06 49.54133 100.66821 33694 ft 411 kts 290°
2026-05-03 21:07 49.56028 100.58514 33692 ft 411 kts 290°
2026-05-03 21:07 49.57917 100.50202 33701 ft 411 kts 290°
2026-05-03 21:08 49.59799 100.41891 33700 ft 411 kts 290°
2026-05-03 21:08 49.61665 100.33614 33697 ft 411 kts 290°
2026-05-03 21:09 49.63533 100.25304 33706 ft 410 kts 290°
2026-05-03 21:09 49.65582 100.17113 33715 ft 409 kts 295°
2026-05-03 21:10 49.68345 100.09446 33727 ft 409 kts 300°
2026-05-03 21:10 49.71257 100.01972 33719 ft 408 kts 300°
2026-05-03 21:11 49.74173 99.94438 33725 ft 409 kts 300°
2026-05-03 21:11 49.77081 99.86883 33733 ft 409 kts 300°
2026-05-03 21:12 49.79962 99.79367 33735 ft 409 kts 299°
2026-05-03 21:12 49.82852 99.71807 33738 ft 408 kts 299°
2026-05-03 21:13 49.85740 99.64228 33745 ft 408 kts 299°
2026-05-03 21:13 49.88617 99.56659 33750 ft 407 kts 299°
2026-05-03 21:14 49.91470 99.49128 33757 ft 408 kts 299°
2026-05-03 21:14 49.94339 99.41533 33748 ft 408 kts 299°
2026-05-03 21:15 49.97206 99.33924 33767 ft 408 kts 299°
2026-05-03 21:15 50.00059 99.26327 33778 ft 407 kts 299°
2026-05-03 21:16 50.02884 99.18783 33790 ft 406 kts 298°
2026-05-03 21:16 50.05724 99.11178 33778 ft 406 kts 298°
2026-05-03 21:17 50.08077 99.04861 33805 ft 406 kts 298°
2026-05-03 21:17 50.11359 98.96019 33796 ft 406 kts 298°
2026-05-03 21:18 50.14182 98.88397 33824 ft 407 kts 298°
2026-05-03 21:18 50.17001 98.80755 33812 ft 406 kts 298°
2026-05-03 21:19 50.19814 98.73108 33821 ft 406 kts 298°
2026-05-03 21:19 50.22624 98.65451 33827 ft 406 kts 298°
2026-05-03 21:20 50.25405 98.57846 33834 ft 406 kts 298°
2026-05-03 21:20 50.28198 98.50190 33845 ft 405 kts 298°
2026-05-03 21:21 50.30982 98.42531 33860 ft 405 kts 297°
2026-05-03 21:21 50.33744 98.34917 33871 ft 405 kts 297°
2026-05-03 21:22 50.36622 98.27333 33870 ft 407 kts 302°
2026-05-03 21:22 50.39851 98.20066 33879 ft 406 kts 302°
2026-05-03 21:23 50.43067 98.12806 33885 ft 405 kts 302°
2026-05-03 21:23 50.46241 98.05592 33897 ft 404 kts 301°
2026-05-03 21:24 50.49427 97.98322 33897 ft 403 kts 301°
2026-05-03 21:24 50.52600 97.91059 33907 ft 403 kts 301°
2026-05-03 21:25 50.55767 97.83788 33912 ft 403 kts 301°
2026-05-03 21:25 50.58907 97.76564 33918 ft 402 kts 301°
2026-05-03 21:26 50.62055 97.69302 33919 ft 402 kts 301°
2026-05-03 21:26 50.65208 97.62027 33924 ft 402 kts 301°
2026-05-03 21:27 50.68332 97.54804 33923 ft 401 kts 301°
2026-05-03 21:27 50.71461 97.47546 33925 ft 400 kts 301°
2026-05-03 21:28 50.74581 97.40287 33935 ft 399 kts 301°
2026-05-03 21:28 50.77700 97.33008 33941 ft 400 kts 301°
2026-05-03 21:29 50.80796 97.25761 33948 ft 400 kts 301°
2026-05-03 21:29 50.83901 97.18479 33939 ft 398 kts 301°
2026-05-03 21:30 50.86991 97.11207 33949 ft 398 kts 301°
2026-05-03 21:30 50.90076 97.03926 33968 ft 399 kts 301°
2026-05-03 21:31 50.93140 96.96675 33963 ft 398 kts 301°
2026-05-03 21:31 50.96214 96.89387 33959 ft 397 kts 300°
2026-05-03 21:32 50.99279 96.82096 33970 ft 397 kts 300°
2026-05-03 21:32 51.02338 96.74793 33970 ft 397 kts 300°
2026-05-03 21:33 51.05371 96.67535 33982 ft 397 kts 300°
2026-05-03 21:33 51.08418 96.60225 33985 ft 396 kts 300°
2026-05-03 21:34 51.11451 96.52928 33994 ft 395 kts 300°
2026-05-03 21:34 51.14456 96.45677 33980 ft 395 kts 300°
2026-05-03 21:35 51.17468 96.38390 33991 ft 393 kts 300°
2026-05-03 21:35 51.20471 96.31101 34003 ft 394 kts 300°
2026-05-03 21:36 51.23473 96.23795 34001 ft 393 kts 300°
2026-05-03 21:36 51.26464 96.16499 34009 ft 393 kts 300°
2026-05-03 21:37 51.29433 96.09233 34013 ft 393 kts 300°
2026-05-03 21:37 51.32408 96.01933 34019 ft 391 kts 300°
2026-05-03 21:38 51.35366 95.94656 34027 ft 390 kts 300°
2026-05-03 21:38 51.38311 95.87390 34020 ft 389 kts 300°
2026-05-03 21:39 51.41235 95.80152 34032 ft 391 kts 300°
2026-05-03 21:39 51.44179 95.72842 34025 ft 390 kts 300°
2026-05-03 21:40 51.47113 95.65540 34030 ft 389 kts 300°
2026-05-03 21:40 51.50014 95.58301 34029 ft 389 kts 300°
2026-05-03 21:41 51.52940 95.50975 34014 ft 391 kts 300°
2026-05-03 21:41 51.55876 95.43606 34013 ft 392 kts 299°
2026-05-03 21:42 51.58810 95.36221 34017 ft 392 kts 299°
2026-05-03 21:42 51.61725 95.28863 34015 ft 393 kts 299°
2026-05-03 21:43 51.64666 95.21416 34000 ft 394 kts 298°
2026-05-03 21:43 51.67600 95.13966 34003 ft 394 kts 298°
2026-05-03 21:44 51.70535 95.06492 34017 ft 395 kts 298°
2026-05-03 21:44 51.73458 94.99029 34022 ft 396 kts 298°
2026-05-03 21:45 51.76400 94.91492 34014 ft 396 kts 298°
2026-05-03 21:45 51.79339 94.83944 34025 ft 397 kts 298°
2026-05-03 21:46 51.82273 94.76382 34030 ft 398 kts 298°
2026-05-03 21:46 51.85188 94.68846 34039 ft 398 kts 298°
2026-05-03 21:47 51.88123 94.61241 34043 ft 398 kts 297°
2026-05-03 21:47 51.91050 94.53635 34045 ft 398 kts 297°
2026-05-03 21:48 51.93950 94.46073 34054 ft 398 kts 297°
2026-05-03 21:48 51.96866 94.38446 34053 ft 398 kts 297°
2026-05-03 21:49 51.99777 94.30810 34060 ft 398 kts 297°
2026-05-03 21:49 52.02685 94.23160 34074 ft 398 kts 297°
2026-05-03 21:50 52.05569 94.15548 34067 ft 398 kts 297°
2026-05-03 21:50 52.08463 94.07890 34079 ft 397 kts 297°
2026-05-03 21:51 52.11345 94.00242 34098 ft 396 kts 297°
2026-05-03 21:51 52.14426 93.92787 34081 ft 399 kts 303°
2026-05-03 21:52 52.18109 93.85977 34088 ft 403 kts 309°
2026-05-03 21:52 52.22236 93.79876 34088 ft 403 kts 311°
2026-05-03 21:53 52.26439 93.73831 34089 ft 403 kts 311°
2026-05-03 21:53 52.30627 93.67770 34086 ft 402 kts 311°
2026-05-03 21:54 52.34774 93.61717 34087 ft 402 kts 311°
2026-05-03 21:54 52.38933 93.55625 34085 ft 401 kts 311°
2026-05-03 21:55 52.43090 93.49516 34076 ft 402 kts 311°
2026-05-03 21:55 52.47245 93.43396 34089 ft 401 kts 311°
2026-05-03 21:56 52.51367 93.37301 34077 ft 401 kts 311°
2026-05-03 21:56 52.55507 93.31170 34079 ft 401 kts 310°
2026-05-03 21:57 52.59651 93.25012 34065 ft 402 kts 310°
2026-05-03 21:57 52.63798 93.18833 34063 ft 403 kts 310°
2026-05-03 21:58 52.67924 93.12675 34076 ft 403 kts 310°
2026-05-03 21:58 52.72082 93.06449 34075 ft 404 kts 310°
2026-05-03 21:59 52.76238 93.00211 34073 ft 404 kts 310°
2026-05-03 21:59 52.80393 92.93954 34067 ft 404 kts 310°
2026-05-03 22:00 52.84551 92.87679 34073 ft 405 kts 310°
2026-05-03 22:00 52.88678 92.81432 34058 ft 405 kts 310°
2026-05-03 22:01 52.92833 92.75126 34046 ft 405 kts 310°
2026-05-03 22:01 52.96982 92.68812 34055 ft 406 kts 310°
2026-05-03 22:02 53.01121 92.62493 34050 ft 407 kts 310°
2026-05-03 22:02 53.05292 92.56111 34059 ft 408 kts 310°
2026-05-03 22:03 53.09466 92.49708 34049 ft 408 kts 310°
2026-05-03 22:03 53.13633 92.43298 34034 ft 408 kts 310°
2026-05-03 22:04 53.17801 92.36865 34040 ft 410 kts 310°
2026-05-03 22:04 53.21965 92.30420 34038 ft 412 kts 310°
2026-05-03 22:05 53.26164 92.23906 34031 ft 412 kts 310°
2026-05-03 22:05 53.30365 92.17371 34034 ft 413 kts 310°
2026-05-03 22:06 53.34568 92.10813 34017 ft 413 kts 310°
2026-05-03 22:06 53.38723 92.04266 34028 ft 411 kts 308°
2026-05-03 22:07 53.42615 91.97286 34014 ft 410 kts 306°
2026-05-03 22:07 53.46476 91.90218 34024 ft 411 kts 307°
2026-05-03 22:08 53.50330 91.83191 34050 ft 412 kts 307°
2026-05-03 22:08 53.54211 91.76095 34026 ft 412 kts 307°
2026-05-03 22:09 53.58085 91.68980 34023 ft 413 kts 307°
2026-05-03 22:10 53.63876 91.58305 34026 ft 414 kts 307°
2026-05-03 22:10 53.67753 91.51133 34020 ft 414 kts 306°
2026-05-03 22:11 53.71628 91.43947 34025 ft 414 kts 306°
2026-05-03 22:11 53.75393 91.36597 34022 ft 411 kts 301°
2026-05-03 22:12 53.78699 91.28773 34023 ft 412 kts 301°
2026-05-03 22:12 53.82023 91.20872 34018 ft 412 kts 301°
2026-05-03 22:13 53.85352 91.12958 34027 ft 413 kts 301°
2026-05-03 22:13 53.88684 91.05027 34028 ft 413 kts 301°
2026-05-03 22:14 53.91994 90.97127 34031 ft 414 kts 300°
2026-05-03 22:14 53.95331 90.89139 34043 ft 415 kts 300°
2026-05-03 22:15 53.98663 90.81134 34034 ft 415 kts 300°
2026-05-03 22:15 54.01999 90.73095 34032 ft 417 kts 300°
2026-05-03 22:16 54.05337 90.65027 34061 ft 417 kts 300°
2026-05-03 22:16 54.08645 90.57006 34039 ft 417 kts 300°
2026-05-03 22:17 54.11978 90.48895 34049 ft 418 kts 300°
2026-05-03 22:17 54.15310 90.40761 34045 ft 418 kts 300°
2026-05-03 22:18 54.18607 90.32688 34068 ft 417 kts 300°
2026-05-03 22:18 54.21926 90.24532 34067 ft 419 kts 300°
2026-05-03 22:19 54.25246 90.16349 34058 ft 419 kts 300°
2026-05-03 22:19 54.28559 90.08156 34056 ft 419 kts 300°
2026-05-03 22:20 54.31848 89.99998 34065 ft 419 kts 300°
2026-05-03 22:20 54.35150 89.91775 34062 ft 420 kts 300°
2026-05-03 22:21 54.38456 89.83518 34063 ft 419 kts 300°
2026-05-03 22:21 54.41751 89.75262 34063 ft 419 kts 300°
2026-05-03 22:22 54.45016 89.67051 34060 ft 419 kts 300°
2026-05-03 22:22 54.48300 89.58771 34078 ft 418 kts 300°
2026-05-03 22:23 54.51572 89.50485 34072 ft 419 kts 300°
2026-05-03 22:23 54.54839 89.42193 34069 ft 418 kts 300°
2026-05-03 22:24 54.58071 89.33960 34073 ft 418 kts 300°
2026-05-03 22:24 54.61322 89.25646 34082 ft 419 kts 299°
2026-05-03 22:25 54.64572 89.17308 34079 ft 419 kts 299°
2026-05-03 22:25 54.67792 89.09024 34087 ft 417 kts 299°
2026-05-03 22:26 54.71022 89.00683 34091 ft 418 kts 299°
2026-05-03 22:26 54.74249 88.92317 34077 ft 419 kts 299°
2026-05-03 22:27 54.77475 88.83930 34082 ft 418 kts 299°
2026-05-03 22:27 54.80671 88.75600 34091 ft 418 kts 299°
2026-05-03 22:28 54.83888 88.67195 34087 ft 418 kts 299°
2026-05-03 22:28 54.87109 88.58798 34082 ft 418 kts 299°
2026-05-03 22:29 54.90323 88.50386 34082 ft 418 kts 299°
2026-05-03 22:29 54.93504 88.42027 34082 ft 417 kts 299°
2026-05-03 22:30 54.96699 88.33600 34098 ft 417 kts 298°
2026-05-03 22:30 54.99883 88.25173 34076 ft 416 kts 298°
2026-05-03 22:31 55.03059 88.16742 34068 ft 416 kts 298°
2026-05-03 22:31 55.06211 88.08342 34070 ft 417 kts 298°
2026-05-03 22:32 55.09378 87.99874 34064 ft 417 kts 298°
2026-05-03 22:32 55.12536 87.91401 34055 ft 416 kts 298°
2026-05-03 22:33 55.15681 87.82937 34055 ft 415 kts 298°
2026-05-03 22:33 55.18796 87.74513 34058 ft 415 kts 298°
2026-05-03 22:34 55.21918 87.65999 34062 ft 416 kts 298°
2026-05-03 22:34 55.25033 87.57471 34051 ft 415 kts 297°
2026-05-03 22:35 55.28140 87.48941 34056 ft 414 kts 297°
2026-05-03 22:35 55.31216 87.40467 34051 ft 414 kts 297°
2026-05-03 22:36 55.34308 87.31920 34050 ft 415 kts 297°
2026-05-03 22:36 55.37392 87.23366 34053 ft 414 kts 297°
2026-05-03 22:37 55.40470 87.14799 34046 ft 414 kts 297°
2026-05-03 22:37 55.43524 87.06265 34046 ft 415 kts 297°
2026-05-03 22:38 55.46598 86.97648 34043 ft 415 kts 297°
2026-05-03 22:38 55.49664 86.89027 34048 ft 415 kts 297°
2026-05-03 22:39 55.52723 86.80390 34042 ft 416 kts 297°
2026-05-03 22:39 55.55763 86.71777 34047 ft 416 kts 296°
2026-05-03 22:40 55.58820 86.63084 34048 ft 416 kts 296°
2026-05-03 22:40 55.61871 86.54381 34048 ft 416 kts 296°
2026-05-03 22:41 55.64913 86.45671 34045 ft 416 kts 296°
2026-05-03 22:41 55.67933 86.36991 34051 ft 417 kts 296°
2026-05-03 22:42 55.70976 86.28214 34046 ft 419 kts 296°
2026-05-03 22:42 55.74020 86.19406 34045 ft 418 kts 296°
2026-05-03 22:43 55.77054 86.10595 34039 ft 419 kts 296°
2026-05-03 22:43 55.80060 86.01825 34046 ft 419 kts 296°
2026-05-03 22:44 55.83078 85.92953 34051 ft 419 kts 296°
2026-05-03 22:44 55.86089 85.84071 34047 ft 419 kts 295°
2026-05-03 22:45 55.89078 85.75220 34034 ft 420 kts 295°
2026-05-03 22:45 55.92089 85.66278 34031 ft 421 kts 295°
2026-05-03 22:46 55.95098 85.57311 34038 ft 421 kts 295°
2026-05-03 22:46 55.98055 85.48279 34040 ft 422 kts 294°
2026-05-03 22:47 56.00954 85.39221 34041 ft 423 kts 294°
2026-05-03 22:47 56.03865 85.30097 34038 ft 423 kts 294°
2026-05-03 22:48 56.06780 85.20953 34035 ft 423 kts 294°
2026-05-03 22:48 56.09695 85.11782 34033 ft 424 kts 294°
2026-05-03 22:49 56.12586 85.02655 34039 ft 424 kts 294°
2026-05-03 22:49 56.15490 84.93452 34034 ft 424 kts 294°
2026-05-03 22:50 56.18390 84.84225 34033 ft 425 kts 294°
2026-05-03 22:50 56.21291 84.74944 34109 ft 430 kts 298°
2026-05-03 22:51 56.24226 84.65533 34042 ft 438 kts 298°
2026-05-03 22:51 56.27199 84.55971 34044 ft 438 kts 298°
2026-05-03 22:52 56.30158 84.46413 34036 ft 436 kts 298°
2026-05-03 22:52 56.33104 84.36851 34041 ft 437 kts 298°
2026-05-03 22:53 56.36024 84.27335 34044 ft 437 kts 298°
2026-05-03 22:53 56.38961 84.17728 34043 ft 437 kts 298°
2026-05-03 22:54 56.41888 84.08111 34042 ft 437 kts 298°
2026-05-03 22:54 56.44812 83.98465 34045 ft 438 kts 298°
2026-05-03 22:55 56.47709 83.88870 34052 ft 438 kts 298°
2026-05-03 22:55 56.50625 83.79169 34051 ft 439 kts 298°
2026-05-03 22:56 56.53533 83.69458 34052 ft 438 kts 298°
2026-05-03 22:56 56.56431 83.59740 34059 ft 438 kts 298°
2026-05-03 22:57 56.59302 83.50071 34059 ft 439 kts 298°
2026-05-03 22:57 56.62190 83.40305 34060 ft 439 kts 298°
2026-05-03 22:58 56.65070 83.30527 34062 ft 439 kts 298°
2026-05-03 22:58 56.67948 83.20714 34068 ft 439 kts 298°
2026-05-03 22:59 56.70796 83.10963 34072 ft 440 kts 298°
2026-05-03 22:59 56.73660 83.01113 34069 ft 440 kts 298°
2026-05-03 23:00 56.76513 82.91260 34073 ft 440 kts 298°
2026-05-03 23:00 56.79345 82.81440 34075 ft 440 kts 298°
2026-05-03 23:01 56.82188 82.71537 34072 ft 441 kts 298°
2026-05-03 23:01 56.85027 82.61608 34076 ft 441 kts 298°
2026-05-03 23:02 56.87858 82.51661 34077 ft 441 kts 298°
2026-05-03 23:02 56.90661 82.41773 34082 ft 441 kts 298°
2026-05-03 23:03 56.93477 82.31796 34077 ft 441 kts 298°
2026-05-03 23:03 56.96285 82.21804 34077 ft 441 kts 298°
2026-05-03 23:04 56.99083 82.11807 34084 ft 441 kts 298°
2026-05-03 23:04 57.01962 82.01939 34081 ft 441 kts 301°
2026-05-03 23:05 57.05086 81.92239 34085 ft 442 kts 301°
2026-05-03 23:05 57.08232 81.82532 34088 ft 442 kts 301°
2026-05-03 23:06 57.11356 81.72798 34086 ft 442 kts 301°
2026-05-03 23:06 57.14464 81.63037 34086 ft 442 kts 301°
2026-05-03 23:07 57.17535 81.53339 34090 ft 441 kts 301°
2026-05-03 23:07 57.20618 81.43559 34090 ft 441 kts 301°
2026-05-03 23:08 57.23698 81.33754 34090 ft 441 kts 301°
2026-05-03 23:08 57.26771 81.23932 34096 ft 441 kts 301°
2026-05-03 23:09 57.29811 81.14172 34093 ft 442 kts 301°
2026-05-03 23:09 57.32869 81.04315 34092 ft 441 kts 301°
2026-05-03 23:10 57.35913 80.94463 34090 ft 441 kts 301°
2026-05-03 23:10 57.38952 80.84584 34097 ft 441 kts 301°
2026-05-03 23:11 57.41960 80.74766 34097 ft 441 kts 301°
2026-05-03 23:11 57.44984 80.64853 34093 ft 441 kts 301°
2026-05-03 23:12 57.47995 80.54942 34094 ft 440 kts 301°
2026-05-03 23:12 57.50974 80.45093 34096 ft 440 kts 300°
2026-05-03 23:13 57.53968 80.35156 34100 ft 440 kts 300°
2026-05-03 23:13 57.56956 80.25192 34099 ft 440 kts 300°
2026-05-03 23:14 57.59934 80.15221 34097 ft 440 kts 300°
2026-05-03 23:14 57.62883 80.05306 34097 ft 440 kts 300°
2026-05-03 23:15 57.65843 79.95309 34098 ft 440 kts 300°
2026-05-03 23:15 57.68792 79.85306 34099 ft 440 kts 300°
2026-05-03 23:16 57.71737 79.75280 34101 ft 440 kts 300°
2026-05-03 23:16 57.74648 79.65278 34094 ft 441 kts 300°
2026-05-03 23:17 57.77543 79.55163 34098 ft 440 kts 300°
2026-05-03 23:17 57.80424 79.45040 34098 ft 440 kts 300°
2026-05-03 23:18 57.83282 79.34973 34097 ft 440 kts 300°
2026-05-03 23:18 57.86154 79.24818 34100 ft 441 kts 300°
2026-05-03 23:19 57.89022 79.14633 34099 ft 441 kts 300°
2026-05-03 23:19 57.91881 79.04435 34099 ft 441 kts 299°
2026-05-03 23:20 57.94735 78.94212 34093 ft 441 kts 299°
2026-05-03 23:20 57.97560 78.84046 34109 ft 441 kts 299°
2026-05-03 23:21 58.00396 78.73792 34106 ft 441 kts 299°
2026-05-03 23:21 58.03226 78.63517 34101 ft 441 kts 299°
2026-05-03 23:22 58.07437 78.48139 34094 ft 441 kts 299°
2026-05-03 23:22 58.10245 78.37825 34094 ft 441 kts 299°
2026-05-03 23:23 58.13047 78.27490 34101 ft 442 kts 299°
2026-05-03 23:23 58.15843 78.17128 34095 ft 442 kts 299°
2026-05-03 23:24 58.18159 78.08508 34096 ft 442 kts 298°
2026-05-03 23:24 58.21392 77.96420 34100 ft 442 kts 298°
2026-05-03 23:25 58.24167 77.85993 34100 ft 443 kts 298°
2026-05-03 23:25 58.26933 77.75553 34097 ft 443 kts 298°
2026-05-03 23:26 58.29676 77.65151 34097 ft 443 kts 298°
2026-05-03 23:26 58.32431 77.54651 34094 ft 444 kts 298°
2026-05-03 23:27 58.34714 77.45916 34098 ft 444 kts 298°
2026-05-03 23:27 58.37457 77.35375 34096 ft 444 kts 298°
2026-05-03 23:28 58.40633 77.23108 34091 ft 444 kts 298°
2026-05-03 23:28 58.43362 77.12511 34095 ft 445 kts 298°
2026-05-03 23:29 58.45624 77.03693 34093 ft 445 kts 298°
2026-05-03 23:29 58.48341 76.93050 34093 ft 446 kts 298°
2026-05-03 23:30 58.51487 76.80664 34093 ft 446 kts 298°
2026-05-03 23:30 58.53751 76.71706 34083 ft 446 kts 298°
2026-05-03 23:31 58.56431 76.61067 34089 ft 447 kts 298°
2026-05-03 23:31 58.59247 76.50458 34096 ft 445 kts 303°
2026-05-03 23:32 58.62794 76.40763 34096 ft 444 kts 308°
2026-05-03 23:32 58.66467 76.31312 34092 ft 445 kts 308°
2026-05-03 23:33 58.70146 76.21755 34086 ft 445 kts 308°
2026-05-03 23:33 58.73804 76.12163 34080 ft 445 kts 308°
2026-05-03 23:34 58.77450 76.02547 34079 ft 444 kts 308°
2026-05-03 23:34 58.81066 75.92972 34079 ft 445 kts 308°
2026-05-03 23:35 58.84701 75.83310 34075 ft 445 kts 308°
2026-05-03 23:35 58.88326 75.73636 34077 ft 444 kts 308°
2026-05-03 23:36 58.91938 75.63955 34074 ft 444 kts 308°
2026-05-03 23:36 58.95524 75.54308 34073 ft 444 kts 308°
2026-05-03 23:37 58.99123 75.44583 34074 ft 444 kts 308°
2026-05-03 23:37 59.03296 75.33258 34074 ft 444 kts 307°
2026-05-03 23:38 59.06272 75.25148 34069 ft 443 kts 307°
2026-05-03 23:38 59.09843 75.15378 34070 ft 443 kts 307°
2026-05-03 23:39 59.13410 75.05581 34067 ft 443 kts 307°
2026-05-03 23:39 59.16966 74.95772 34068 ft 443 kts 307°
2026-05-03 23:40 59.20516 74.85941 34068 ft 443 kts 307°
2026-05-03 23:40 59.24028 74.76170 34066 ft 443 kts 307°
2026-05-03 23:41 59.27555 74.66320 34063 ft 442 kts 307°
2026-05-03 23:41 59.31074 74.56454 34075 ft 442 kts 307°
2026-05-03 23:42 59.34325 74.46202 34059 ft 445 kts 298°
2026-05-03 23:42 59.36893 74.35156 34062 ft 446 kts 297°
2026-05-03 23:43 59.39415 74.24148 34061 ft 445 kts 297°
2026-05-03 23:43 59.41961 74.13060 34054 ft 445 kts 297°
2026-05-03 23:44 59.44505 74.01975 34056 ft 445 kts 297°
2026-05-03 23:44 59.47027 73.90949 34053 ft 445 kts 297°
2026-05-03 23:45 59.49556 73.79833 34053 ft 445 kts 296°
2026-05-03 23:45 59.52079 73.68688 34050 ft 445 kts 296°
2026-05-03 23:46 59.54592 73.57525 34049 ft 445 kts 296°
2026-05-03 23:46 59.57075 73.46435 34051 ft 446 kts 296°
2026-05-03 23:47 59.59571 73.35229 34044 ft 446 kts 296°
2026-05-03 23:47 59.62056 73.24012 34049 ft 446 kts 296°
2026-05-03 23:48 59.64532 73.12775 34041 ft 446 kts 296°
2026-05-03 23:48 59.66980 73.01605 34041 ft 446 kts 296°
2026-05-03 23:49 59.69440 72.90322 34133 ft 448 kts 296°
2026-05-03 23:49 59.70670 72.84658 34392 ft 447 kts 295°
2026-05-03 23:49 59.71896 72.78996 34694 ft 446 kts 295°
2026-05-03 23:50 59.73114 72.73356 34972 ft 445 kts 295°
2026-05-03 23:50 59.74332 72.67702 35221 ft 445 kts 295°
2026-05-03 23:50 59.75529 72.62127 35433 ft 446 kts 295°
2026-05-03 23:50 59.76741 72.56471 35664 ft 446 kts 295°
2026-05-03 23:51 59.77953 72.50796 35891 ft 446 kts 295°
2026-05-03 23:51 59.79164 72.45115 35939 ft 448 kts 294°
2026-05-03 23:51 59.81582 72.33717 36024 ft 448 kts 294°
2026-05-03 23:52 59.83972 72.22384 36022 ft 447 kts 294°
2026-05-03 23:52 59.86366 72.10977 36025 ft 447 kts 294°
2026-05-03 23:53 59.88750 71.99554 36025 ft 447 kts 294°
2026-05-03 23:53 59.91127 71.88097 36025 ft 448 kts 294°
2026-05-03 23:54 59.93481 71.76690 36020 ft 448 kts 294°
2026-05-03 23:54 59.95838 71.65198 36023 ft 448 kts 294°
2026-05-03 23:55 59.98186 71.53690 36016 ft 448 kts 293°
2026-05-03 23:55 60.00526 71.42158 36012 ft 448 kts 293°
2026-05-03 23:56 60.02843 71.30668 36011 ft 449 kts 293°
2026-05-03 23:56 60.05166 71.19086 36010 ft 449 kts 293°
2026-05-03 23:57 60.07481 71.07477 36009 ft 449 kts 293°
2026-05-03 23:57 60.09786 70.95846 36004 ft 449 kts 292°
2026-05-03 23:58 60.12068 70.84272 36003 ft 450 kts 292°
2026-05-03 23:58 60.14357 70.72589 35998 ft 450 kts 292°
2026-05-03 23:59 60.16636 70.60884 35996 ft 450 kts 292°
2026-05-03 23:59 60.18906 70.49162 35995 ft 451 kts 292°
2026-05-04 00:00 60.21153 70.37489 35989 ft 451 kts 292°
2026-05-04 00:00 60.23408 70.25704 35988 ft 451 kts 292°
2026-05-04 00:01 60.25652 70.13918 35986 ft 451 kts 292°
2026-05-04 00:01 60.27879 70.02095 35983 ft 452 kts 291°
2026-05-04 00:02 60.30066 69.90311 35981 ft 452 kts 291°
2026-05-04 00:02 60.32259 69.78428 35975 ft 452 kts 291°
2026-05-04 00:03 60.34445 69.66538 35969 ft 452 kts 291°
2026-05-04 00:03 60.36615 69.54709 35981 ft 452 kts 291°
2026-05-04 00:04 60.38808 69.42795 35969 ft 453 kts 291°
2026-05-04 00:04 60.40992 69.30859 35961 ft 453 kts 291°
2026-05-04 00:05 60.43167 69.18885 35965 ft 453 kts 291°
2026-05-04 00:05 60.45317 69.06970 35959 ft 454 kts 291°
2026-05-04 00:06 60.47473 68.94947 35959 ft 454 kts 290°
2026-05-04 00:06 60.49620 68.82911 35958 ft 454 kts 290°
2026-05-04 00:07 60.51741 68.70920 35949 ft 454 kts 290°
2026-05-04 00:07 60.53863 68.58828 35949 ft 455 kts 290°
2026-05-04 00:08 60.55976 68.46712 35954 ft 455 kts 290°
2026-05-04 00:08 60.58078 68.34580 35953 ft 455 kts 290°
2026-05-04 00:09 60.60158 68.22503 35941 ft 455 kts 290°
2026-05-04 00:09 60.62242 68.10325 35950 ft 455 kts 289°
2026-05-04 00:10 60.64314 67.98135 35949 ft 456 kts 289°
2026-05-04 00:10 60.66377 67.85914 35946 ft 456 kts 289°
2026-05-04 00:11 60.68413 67.73771 35939 ft 456 kts 289°
2026-05-04 00:11 60.70458 67.61510 35944 ft 456 kts 289°
2026-05-04 00:12 60.72487 67.49245 35940 ft 456 kts 289°
2026-05-04 00:12 60.74498 67.36961 35941 ft 456 kts 289°
2026-05-04 00:13 60.76487 67.24737 35934 ft 456 kts 288°
2026-05-04 00:13 60.78479 67.12409 35939 ft 457 kts 288°
2026-05-04 00:14 60.80463 67.00055 35938 ft 457 kts 288°
2026-05-04 00:14 60.82434 66.87692 35937 ft 457 kts 288°
2026-05-04 00:15 60.84382 66.75387 35931 ft 457 kts 288°
2026-05-04 00:15 60.86333 66.62981 35939 ft 457 kts 288°
2026-05-04 00:16 60.88274 66.50545 35930 ft 457 kts 288°
2026-05-04 00:16 60.90188 66.38195 35931 ft 457 kts 287°
2026-05-04 00:17 60.92105 66.25738 35926 ft 457 kts 287°
2026-05-04 00:17 60.94012 66.13257 35928 ft 457 kts 287°
2026-05-04 00:18 60.95908 66.00770 35922 ft 457 kts 287°
2026-05-04 00:18 60.97780 65.88342 35922 ft 457 kts 287°
2026-05-04 00:19 60.99651 65.75820 35917 ft 458 kts 287°
2026-05-04 00:19 61.01512 65.63280 35914 ft 458 kts 287°
2026-05-04 00:20 61.03363 65.50718 35913 ft 457 kts 287°
2026-05-04 00:20 61.05200 65.38153 35917 ft 457 kts 286°
2026-05-04 00:21 61.07014 65.25662 35912 ft 458 kts 286°
2026-05-04 00:21 61.08829 65.13060 35910 ft 458 kts 286°
2026-05-04 00:22 61.10632 65.00445 35911 ft 458 kts 286°
2026-05-04 00:22 61.12415 64.87883 35909 ft 458 kts 286°
2026-05-04 00:23 61.14197 64.75223 35903 ft 458 kts 285°
2026-05-04 00:23 61.15967 64.62552 35906 ft 458 kts 285°
2026-05-04 00:24 61.17727 64.49872 35899 ft 458 kts 285°
2026-05-04 00:24 61.19460 64.37256 35898 ft 458 kts 285°
2026-05-04 00:25 61.21192 64.24547 35895 ft 458 kts 285°
2026-05-04 00:25 61.22915 64.11808 35896 ft 458 kts 285°
2026-05-04 00:26 61.24615 63.99146 35893 ft 458 kts 285°
2026-05-04 00:26 61.26315 63.86382 35890 ft 458 kts 285°
2026-05-04 00:27 61.28004 63.73606 35885 ft 458 kts 284°
2026-05-04 00:27 61.29503 63.60736 35891 ft 457 kts 279°
2026-05-04 00:28 61.30573 63.47780 35891 ft 458 kts 279°
2026-05-04 00:28 61.31625 63.34713 35885 ft 458 kts 279°
2026-05-04 00:29 61.32689 63.21638 35885 ft 458 kts 279°
2026-05-04 00:29 61.33749 63.08565 35885 ft 458 kts 279°
2026-05-04 00:30 61.34789 62.95585 35885 ft 458 kts 279°
2026-05-04 00:30 61.35823 62.82505 35879 ft 457 kts 279°
2026-05-04 00:31 61.36846 62.69412 35877 ft 457 kts 278°
2026-05-04 00:31 61.37851 62.56411 35873 ft 457 kts 278°
2026-05-04 00:32 61.38856 62.43317 35868 ft 457 kts 278°
2026-05-04 00:32 61.39850 62.30212 35871 ft 457 kts 278°
2026-05-04 00:33 61.41316 62.10542 35865 ft 457 kts 278°
2026-05-04 00:34 61.42270 61.97513 35870 ft 457 kts 278°
2026-05-04 00:34 61.43218 61.84386 35867 ft 457 kts 278°
2026-05-04 00:35 61.44152 61.71271 35863 ft 456 kts 278°
2026-05-04 00:35 61.45074 61.58154 35860 ft 456 kts 277°
2026-05-04 00:36 61.45976 61.45126 35852 ft 456 kts 277°
2026-05-04 00:36 61.46872 61.32006 35854 ft 456 kts 277°
2026-05-04 00:37 61.47757 61.18868 35853 ft 456 kts 277°
2026-05-04 00:37 61.48632 61.05733 35848 ft 456 kts 277°
2026-05-04 00:38 61.49494 60.92676 35849 ft 456 kts 277°
2026-05-04 00:38 61.50349 60.79534 35841 ft 455 kts 277°
2026-05-04 00:39 61.51191 60.66382 35843 ft 455 kts 277°
2026-05-04 00:39 61.52019 60.53243 35841 ft 455 kts 277°
2026-05-04 00:40 61.52829 60.40183 35838 ft 455 kts 276°
2026-05-04 00:40 61.53632 60.27033 35838 ft 455 kts 276°
2026-05-04 00:41 61.54423 60.13860 35834 ft 456 kts 276°
2026-05-04 00:41 61.55199 60.00764 35838 ft 456 kts 276°
2026-05-04 00:42 61.55968 59.87551 35834 ft 456 kts 276°
2026-05-04 00:42 61.56727 59.74347 35834 ft 456 kts 276°
2026-05-04 00:43 61.57475 59.61114 35833 ft 457 kts 276°
2026-05-04 00:43 61.58206 59.47963 35841 ft 457 kts 276°
2026-05-04 00:44 61.58929 59.34718 35850 ft 457 kts 276°
2026-05-04 00:44 61.59638 59.21476 35852 ft 456 kts 275°
2026-05-04 00:45 61.60333 59.08262 35855 ft 455 kts 275°
2026-05-04 00:45 61.61011 58.95133 35854 ft 455 kts 275°
2026-05-04 00:46 61.61679 58.81929 35850 ft 454 kts 275°
2026-05-04 00:46 61.62335 58.68718 35849 ft 454 kts 275°
2026-05-04 00:47 61.62979 58.55521 35850 ft 454 kts 275°
2026-05-04 00:47 61.63620 58.42310 35841 ft 454 kts 275°
2026-05-04 00:48 61.64324 58.29203 35836 ft 454 kts 276°
2026-05-04 00:48 61.65044 58.15995 35830 ft 454 kts 275°
2026-05-04 00:49 61.65743 58.02795 35827 ft 454 kts 275°
2026-05-04 00:49 61.66423 57.89578 35821 ft 454 kts 275°
2026-05-04 00:50 61.67084 57.76442 35822 ft 454 kts 275°
2026-05-04 00:50 61.67736 57.63216 35816 ft 454 kts 275°
2026-05-04 00:51 61.68376 57.49976 35811 ft 454 kts 275°
2026-05-04 00:51 61.69002 57.36754 35809 ft 454 kts 275°
2026-05-04 00:52 61.69612 57.23613 35807 ft 454 kts 274°
2026-05-04 00:52 61.70213 57.10391 35802 ft 453 kts 274°
2026-05-04 00:53 61.70800 56.97174 35801 ft 453 kts 274°
2026-05-04 00:53 61.71374 56.83963 35795 ft 452 kts 274°
2026-05-04 00:54 61.71931 56.70842 35792 ft 452 kts 274°
2026-05-04 00:54 61.72479 56.57648 35790 ft 452 kts 274°
2026-05-04 00:55 61.73014 56.44445 35787 ft 451 kts 274°
2026-05-04 00:55 61.73533 56.31332 35781 ft 451 kts 274°
2026-05-04 00:56 61.74042 56.18147 35778 ft 451 kts 273°
2026-05-04 00:56 61.74532 56.05101 35773 ft 451 kts 273°
2026-05-04 00:57 61.75016 55.91915 35771 ft 450 kts 273°
2026-05-04 00:57 61.75483 55.78835 35769 ft 450 kts 273°
2026-05-04 00:58 61.75940 55.65672 35765 ft 449 kts 273°
2026-05-04 00:58 61.76384 55.52512 35764 ft 449 kts 272°
2026-05-04 00:59 61.76816 55.39340 35762 ft 449 kts 272°
2026-05-04 00:59 61.77232 55.26267 35765 ft 449 kts 272°
2026-05-04 01:00 61.77639 55.13107 35761 ft 449 kts 272°
2026-05-04 01:00 61.78032 54.99957 35756 ft 448 kts 272°
2026-05-04 01:01 61.78413 54.86816 35754 ft 448 kts 272°
2026-05-04 01:01 61.78781 54.73753 35751 ft 448 kts 272°
2026-05-04 01:02 61.79158 54.60621 35752 ft 448 kts 272°
2026-05-04 01:02 61.79542 54.47491 35751 ft 447 kts 272°
2026-05-04 01:03 61.79912 54.34369 35750 ft 447 kts 272°
2026-05-04 01:03 61.80267 54.21244 35747 ft 447 kts 271°
2026-05-04 01:04 61.80605 54.08229 35748 ft 446 kts 271°
2026-05-04 01:04 61.80934 53.95110 35748 ft 446 kts 271°
2026-05-04 01:05 61.81250 53.82000 35742 ft 446 kts 271°
2026-05-04 01:05 61.81551 53.68996 35744 ft 446 kts 271°
2026-05-04 01:06 61.81842 53.55911 35738 ft 445 kts 271°
2026-05-04 01:06 61.82122 53.42835 35735 ft 445 kts 271°
2026-05-04 01:07 61.82387 53.29765 35736 ft 444 kts 271°
2026-05-04 01:07 61.82637 53.16701 35732 ft 445 kts 270°
2026-05-04 01:08 61.82876 53.03720 35732 ft 444 kts 270°
2026-05-04 01:08 61.83104 52.90660 35730 ft 444 kts 270°
2026-05-04 01:09 61.83320 52.77632 35729 ft 443 kts 270°
2026-05-04 01:09 61.83523 52.64584 35711 ft 443 kts 270°
2026-05-04 01:10 61.83713 52.51642 35721 ft 443 kts 270°
2026-05-04 01:10 61.83894 52.38624 35719 ft 443 kts 270°
2026-05-04 01:11 61.84047 52.25587 35716 ft 443 kts 269°
2026-05-04 01:11 61.84100 52.12569 35700 ft 443 kts 269°
2026-05-04 01:12 61.84132 51.99630 35709 ft 442 kts 269°
2026-05-04 01:12 61.84165 51.86592 35706 ft 443 kts 269°
2026-05-04 01:13 61.84191 51.73561 35710 ft 442 kts 269°
2026-05-04 01:13 61.84202 51.60619 35695 ft 442 kts 269°
2026-05-04 01:14 61.84192 51.47592 35706 ft 443 kts 268°
2026-05-04 01:14 61.84168 51.34552 35699 ft 443 kts 268°
2026-05-04 01:15 61.84133 51.21515 35690 ft 443 kts 268°
2026-05-04 01:15 61.84087 51.08471 35684 ft 443 kts 268°
2026-05-04 01:16 61.84030 50.95528 35685 ft 443 kts 268°
2026-05-04 01:16 61.83960 50.82495 35686 ft 443 kts 268°
2026-05-04 01:17 61.83877 50.69450 35693 ft 443 kts 268°
2026-05-04 01:17 61.83783 50.56505 35680 ft 443 kts 268°
2026-05-04 01:18 61.83676 50.43478 35686 ft 443 kts 268°
2026-05-04 01:18 61.83556 50.30433 35688 ft 443 kts 268°
2026-05-04 01:19 61.83424 50.17413 35690 ft 443 kts 268°
2026-05-04 01:19 61.83282 50.04475 35688 ft 442 kts 268°
2026-05-04 01:20 61.83126 49.91471 35690 ft 442 kts 268°
2026-05-04 01:20 61.82961 49.78483 35687 ft 442 kts 268°
2026-05-04 01:21 61.82848 49.65476 35691 ft 442 kts 269°
2026-05-04 01:21 61.82845 49.52544 35692 ft 442 kts 269°
2026-05-04 01:22 61.82810 49.39563 35689 ft 442 kts 269°
2026-05-04 01:22 61.82691 49.26561 35697 ft 442 kts 268°
2026-05-04 01:23 61.82504 49.13652 35696 ft 441 kts 268°
2026-05-04 01:23 61.82309 49.00680 35698 ft 441 kts 268°
2026-05-04 01:24 61.82112 48.87726 35701 ft 441 kts 268°
2026-05-04 01:24 61.81906 48.74761 35704 ft 441 kts 268°
2026-05-04 01:25 61.81690 48.61908 35704 ft 440 kts 268°
2026-05-04 01:25 61.81460 48.48980 35708 ft 440 kts 268°
2026-05-04 01:26 61.81219 48.36057 35707 ft 440 kts 267°
2026-05-04 01:26 61.80965 48.23135 35710 ft 439 kts 267°
2026-05-04 01:27 61.80701 48.10322 35717 ft 439 kts 267°
2026-05-04 01:27 61.80423 47.97437 35717 ft 439 kts 267°
2026-05-04 01:28 61.80134 47.84544 35719 ft 439 kts 267°
2026-05-04 01:28 61.79833 47.71670 35720 ft 438 kts 267°
2026-05-04 01:29 61.79522 47.58904 35720 ft 438 kts 267°
2026-05-04 01:29 61.79200 47.46059 35724 ft 437 kts 267°
2026-05-04 01:30 61.78871 47.33230 35722 ft 437 kts 267°
2026-05-04 01:30 61.78566 47.20467 35728 ft 438 kts 267°
2026-05-04 01:31 61.78243 47.07631 35728 ft 437 kts 266°
2026-05-04 01:31 61.77823 46.94819 35730 ft 437 kts 266°
2026-05-04 01:32 61.77363 46.82009 35731 ft 437 kts 265°
2026-05-04 01:32 61.76903 46.69291 35735 ft 437 kts 265°
2026-05-04 01:33 61.76436 46.56495 35737 ft 438 kts 265°
2026-05-04 01:33 61.75959 46.43684 35738 ft 437 kts 265°
2026-05-04 01:34 61.75469 46.30880 35741 ft 437 kts 265°
2026-05-04 01:34 61.74971 46.18170 35745 ft 438 kts 265°
2026-05-04 01:35 61.74458 46.05372 35750 ft 437 kts 265°
2026-05-04 01:35 61.73933 45.92584 35748 ft 437 kts 265°
2026-05-04 01:36 61.73399 45.79887 35752 ft 438 kts 265°
2026-05-04 01:36 61.72850 45.67102 35751 ft 438 kts 265°
2026-05-04 01:37 61.72289 45.54311 35755 ft 438 kts 265°
2026-05-04 01:37 61.71715 45.41507 35758 ft 438 kts 265°
2026-05-04 01:38 61.71130 45.28735 35760 ft 438 kts 265°
2026-05-04 01:38 61.70540 45.16054 35763 ft 438 kts 264°
2026-05-04 01:39 61.69934 45.03286 35764 ft 438 kts 264°
2026-05-04 01:39 61.69338 44.90514 35765 ft 438 kts 265°
2026-05-04 01:40 61.68739 44.77753 35772 ft 438 kts 264°
2026-05-04 01:40 61.68132 44.65081 35773 ft 438 kts 264°
2026-05-04 01:41 61.67506 44.52324 35776 ft 438 kts 264°
2026-05-04 01:41 61.66868 44.39569 35779 ft 438 kts 264°
2026-05-04 01:42 61.66218 44.26820 35780 ft 438 kts 264°
2026-05-04 01:42 61.65560 44.14147 35782 ft 438 kts 264°
2026-05-04 01:43 61.64886 44.01416 35782 ft 438 kts 264°
2026-05-04 01:43 61.64200 43.88662 35786 ft 438 kts 264°
2026-05-04 01:44 61.63502 43.75931 35784 ft 438 kts 264°
2026-05-04 01:44 61.62797 43.63277 35788 ft 439 kts 264°
2026-05-04 01:45 61.62076 43.50552 35793 ft 439 kts 264°
2026-05-04 01:45 61.60971 43.31459 35794 ft 439 kts 264°
2026-05-04 01:46 61.60224 43.18815 35793 ft 439 kts 263°
2026-05-04 01:46 61.59461 43.06104 35796 ft 439 kts 263°
2026-05-04 01:47 61.58684 42.93369 35796 ft 440 kts 263°
2026-05-04 01:47 61.57902 42.80736 35801 ft 439 kts 263°
2026-05-04 01:48 61.57102 42.68009 35795 ft 440 kts 263°
2026-05-04 01:48 61.56291 42.55298 35796 ft 439 kts 263°
2026-05-04 01:49 61.55470 42.42601 35800 ft 439 kts 263°
2026-05-04 01:49 61.54642 42.29989 35803 ft 440 kts 263°
2026-05-04 01:50 61.53814 42.17302 35804 ft 439 kts 263°
2026-05-04 01:50 61.52981 42.04615 35806 ft 439 kts 263°
2026-05-04 01:51 61.52136 41.91921 35807 ft 439 kts 263°
2026-05-04 01:51 61.51287 41.79353 35816 ft 439 kts 263°
2026-05-04 01:52 61.50417 41.66688 35812 ft 439 kts 263°
2026-05-04 01:52 61.49538 41.54059 35815 ft 439 kts 263°
2026-05-04 01:53 61.48647 41.41424 35820 ft 439 kts 263°
2026-05-04 01:53 61.47750 41.28887 35822 ft 439 kts 262°
2026-05-04 01:54 61.46835 41.16270 35823 ft 439 kts 262°
2026-05-04 01:54 61.45909 41.03655 35824 ft 439 kts 262°
2026-05-04 01:55 61.44973 40.91071 35827 ft 438 kts 262°
2026-05-04 01:55 61.44029 40.78560 35829 ft 438 kts 262°
2026-05-04 01:56 61.43070 40.65991 35823 ft 438 kts 262°
2026-05-04 01:56 61.42098 40.53427 35830 ft 438 kts 262°
2026-05-04 01:57 61.41115 40.40861 35831 ft 439 kts 262°
2026-05-04 01:57 61.40119 40.28297 35837 ft 438 kts 262°
2026-05-04 01:58 61.39120 40.15839 35833 ft 438 kts 262°
2026-05-04 01:58 61.38101 40.03296 35843 ft 439 kts 262°
2026-05-04 01:59 61.37071 39.90755 35840 ft 438 kts 262°
2026-05-04 01:59 61.36031 39.78245 35844 ft 438 kts 261°
2026-05-04 02:00 61.34987 39.65828 35841 ft 438 kts 261°
2026-05-04 02:00 61.33924 39.53335 35840 ft 438 kts 261°
2026-05-04 02:01 61.32850 39.40852 35843 ft 438 kts 261°
2026-05-04 02:01 61.31771 39.28445 35842 ft 439 kts 261°
2026-05-04 02:02 61.30673 39.15968 35838 ft 438 kts 261°
2026-05-04 02:02 61.29564 39.03476 35837 ft 439 kts 261°
2026-05-04 02:03 61.28443 38.91010 35832 ft 438 kts 261°
2026-05-04 02:03 61.27321 38.78666 35840 ft 438 kts 261°
2026-05-04 02:04 61.26181 38.66230 35848 ft 438 kts 261°
2026-05-04 02:04 61.25033 38.53814 35842 ft 438 kts 261°
2026-05-04 02:05 61.23871 38.41386 35837 ft 438 kts 261°
2026-05-04 02:05 61.22501 38.29142 35842 ft 439 kts 258°
2026-05-04 02:06 61.20967 38.16872 35844 ft 439 kts 257°
2026-05-04 02:06 61.19443 38.04622 35847 ft 439 kts 258°
2026-05-04 02:07 61.17935 37.92361 35844 ft 439 kts 258°
2026-05-04 02:07 61.16434 37.80183 35847 ft 438 kts 258°
2026-05-04 02:08 61.14915 37.67954 35848 ft 439 kts 257°
2026-05-04 02:08 61.13385 37.55742 35849 ft 438 kts 257°
2026-05-04 02:09 61.11844 37.43541 35850 ft 438 kts 257°
2026-05-04 02:09 61.10303 37.31440 35848 ft 438 kts 257°
2026-05-04 02:10 61.08740 37.19264 35843 ft 438 kts 257°
2026-05-04 02:10 61.07166 37.07101 35859 ft 438 kts 257°
2026-05-04 02:11 61.05584 36.94969 35873 ft 438 kts 257°
2026-05-04 02:11 61.03996 36.82893 35859 ft 439 kts 257°
2026-05-04 02:12 61.02388 36.70755 35853 ft 438 kts 257°
2026-05-04 02:12 61.00771 36.58639 35858 ft 439 kts 257°
2026-05-04 02:13 60.99154 36.46593 35858 ft 439 kts 257°
2026-05-04 02:13 60.97477 36.34520 35852 ft 439 kts 254°
2026-05-04 02:14 60.95501 36.22612 35861 ft 439 kts 253°
2026-05-04 02:14 60.93484 36.10753 35855 ft 439 kts 253°
2026-05-04 02:15 60.91483 35.98967 35851 ft 439 kts 253°
2026-05-04 02:15 60.89469 35.87120 35855 ft 439 kts 253°
2026-05-04 02:16 60.87450 35.75304 35855 ft 439 kts 253°
2026-05-04 02:16 60.85418 35.63495 35855 ft 439 kts 253°
2026-05-04 02:17 60.83392 35.51781 35852 ft 439 kts 253°
2026-05-04 02:17 60.81338 35.40018 35853 ft 438 kts 253°
2026-05-04 02:18 60.79275 35.28304 35856 ft 438 kts 253°
2026-05-04 02:18 60.77202 35.16599 35855 ft 437 kts 253°
2026-05-04 02:19 60.75138 35.05006 35857 ft 436 kts 253°
2026-05-04 02:19 60.73054 34.93363 35853 ft 436 kts 253°
2026-05-04 02:20 60.70957 34.81724 35853 ft 436 kts 253°
2026-05-04 02:20 60.68867 34.70194 35857 ft 436 kts 252°
2026-05-04 02:21 60.66756 34.58617 35843 ft 435 kts 252°
2026-05-04 02:21 60.64635 34.47058 35852 ft 435 kts 252°
2026-05-04 02:22 60.62504 34.35516 35844 ft 435 kts 252°
2026-05-04 02:22 60.60381 34.24081 35850 ft 435 kts 252°
2026-05-04 02:23 60.58232 34.12576 35847 ft 435 kts 252°
2026-05-04 02:23 60.56078 34.01108 35847 ft 434 kts 252°
2026-05-04 02:24 60.53912 33.89648 35848 ft 434 kts 252°
2026-05-04 02:24 60.51753 33.78293 35846 ft 434 kts 252°
2026-05-04 02:25 60.49570 33.66870 35848 ft 434 kts 252°
2026-05-04 02:25 60.47379 33.55481 35845 ft 434 kts 252°
2026-05-04 02:26 60.45176 33.44090 35844 ft 434 kts 252°
2026-05-04 02:26 60.42980 33.32803 35841 ft 433 kts 252°
2026-05-04 02:27 60.40764 33.21478 35845 ft 433 kts 252°
2026-05-04 02:27 60.38541 33.10179 35845 ft 433 kts 252°
2026-05-04 02:28 60.36308 32.98888 35847 ft 433 kts 252°
2026-05-04 02:28 60.34077 32.87679 35841 ft 432 kts 252°
2026-05-04 02:29 60.31828 32.76442 35845 ft 432 kts 252°
2026-05-04 02:29 60.29573 32.65234 35841 ft 431 kts 251°
2026-05-04 02:30 60.27312 32.54052 35840 ft 431 kts 251°
2026-05-04 02:30 60.25057 32.42967 35832 ft 430 kts 251°
2026-05-04 02:31 60.22785 32.31845 35835 ft 430 kts 251°
2026-05-04 02:31 60.20499 32.20738 35836 ft 430 kts 251°
2026-05-04 02:32 60.18199 32.09657 35830 ft 429 kts 251°
2026-05-04 02:32 60.15907 31.98663 35832 ft 429 kts 251°
2026-05-04 02:33 60.13595 31.87607 35832 ft 430 kts 251°
2026-05-04 02:33 60.11272 31.76572 35829 ft 429 kts 251°
2026-05-04 02:34 60.08962 31.65541 35833 ft 429 kts 251°
2026-05-04 02:34 60.06668 31.54603 35845 ft 429 kts 251°
2026-05-04 02:35 60.04355 31.43573 35820 ft 429 kts 253°
2026-05-04 02:35 60.02481 31.32306 35830 ft 428 kts 256°
2026-05-04 02:36 60.00657 31.20944 35827 ft 428 kts 256°
2026-05-04 02:36 59.98828 31.09700 35827 ft 428 kts 255°
2026-05-04 02:37 59.96975 30.98410 35829 ft 428 kts 255°
2026-05-04 02:37 59.95109 30.87114 35816 ft 428 kts 255°
2026-05-04 02:38 59.93235 30.75844 35806 ft 429 kts 255°
2026-05-04 02:38 59.91363 30.64636 35815 ft 429 kts 255°
2026-05-04 02:39 59.89464 30.53370 35805 ft 429 kts 255°
2026-05-04 02:39 59.87550 30.42094 35799 ft 430 kts 255°
2026-05-04 02:40 59.85631 30.30847 35804 ft 429 kts 255°
2026-05-04 02:40 59.83716 30.19668 35799 ft 429 kts 254°
2026-05-04 02:41 59.81780 30.08449 35801 ft 429 kts 254°
2026-05-04 02:41 59.79844 29.97234 35808 ft 429 kts 254°
2026-05-04 02:42 59.77914 29.86089 35809 ft 430 kts 254°
2026-05-04 02:42 59.75963 29.74886 35809 ft 429 kts 254°
2026-05-04 02:43 59.74004 29.63701 35812 ft 429 kts 254°
2026-05-04 02:43 59.72035 29.52538 35816 ft 429 kts 253°
2026-05-04 02:44 59.69936 29.41464 35811 ft 430 kts 252°
2026-05-04 02:44 59.67791 29.30519 35813 ft 430 kts 252°
2026-05-04 02:45 59.65639 29.19487 35810 ft 429 kts 252°
2026-05-04 02:45 59.63493 29.08483 35812 ft 429 kts 252°
2026-05-04 02:46 59.61372 28.97478 35816 ft 428 kts 253°
2026-05-04 02:46 59.59429 28.86442 35816 ft 428 kts 254°
2026-05-04 02:47 59.57477 28.75351 35812 ft 428 kts 254°
2026-05-04 02:47 59.55494 28.64286 35813 ft 428 kts 253°
2026-05-04 02:48 59.53497 28.53237 35823 ft 428 kts 253°
2026-05-04 02:48 59.51511 28.42196 35816 ft 428 kts 254°
2026-05-04 02:49 59.49552 28.31236 35829 ft 428 kts 254°
2026-05-04 02:49 59.47566 28.20194 35818 ft 428 kts 253°
2026-05-04 02:50 59.45568 28.09180 35816 ft 427 kts 253°
2026-05-04 02:50 59.43475 27.98249 35825 ft 428 kts 252°
2026-05-04 02:51 59.41353 27.87422 35821 ft 428 kts 252°
2026-05-04 02:51 59.39216 27.76511 35815 ft 428 kts 252°
2026-05-04 02:52 59.37082 27.65631 35813 ft 428 kts 252°
2026-05-04 02:52 59.34937 27.54740 35814 ft 428 kts 252°
2026-05-04 02:53 59.32751 27.43959 35816 ft 429 kts 250°
2026-05-04 02:53 59.30337 27.33270 35820 ft 430 kts 249°
2026-05-04 02:54 59.27877 27.22607 35821 ft 429 kts 249°
2026-05-04 02:54 59.25433 27.11958 35821 ft 429 kts 249°
2026-05-04 02:55 59.21796 26.96068 35822 ft 429 kts 249°
2026-05-04 02:56 59.19351 26.85433 35822 ft 430 kts 249°
2026-05-04 02:56 59.16897 26.74815 35823 ft 430 kts 249°
2026-05-04 02:57 59.14449 26.64274 35819 ft 429 kts 249°
2026-05-04 02:57 59.11979 26.53691 35826 ft 429 kts 249°
2026-05-04 02:58 59.09501 26.43128 35827 ft 429 kts 249°
2026-05-04 02:58 59.07013 26.32574 35828 ft 430 kts 248°
2026-05-04 02:59 59.04529 26.22089 35827 ft 430 kts 248°
2026-05-04 02:59 59.02024 26.11563 35826 ft 429 kts 248°
2026-05-04 03:00 58.99510 26.01054 35831 ft 429 kts 248°
2026-05-04 03:00 58.96987 25.90557 35830 ft 429 kts 248°
2026-05-04 03:01 58.94457 25.80080 35829 ft 429 kts 248°
2026-05-04 03:01 58.91936 25.69690 35829 ft 429 kts 248°
2026-05-04 03:02 58.89387 25.59236 35831 ft 430 kts 248°
2026-05-04 03:02 58.86829 25.48797 35833 ft 430 kts 248°
2026-05-04 03:03 58.84262 25.38370 35833 ft 429 kts 247°
2026-05-04 03:03 58.81705 25.28031 35837 ft 430 kts 247°
2026-05-04 03:04 58.79119 25.17626 35834 ft 430 kts 247°
2026-05-04 03:04 58.76524 25.07233 35832 ft 431 kts 247°
2026-05-04 03:05 58.73919 24.96847 35831 ft 430 kts 247°
2026-05-04 03:05 58.71325 24.86557 35833 ft 430 kts 247°
2026-05-04 03:06 58.68707 24.76217 35832 ft 430 kts 246°
2026-05-04 03:06 58.66081 24.65893 35832 ft 430 kts 246°
2026-05-04 03:07 58.63466 24.55664 35832 ft 430 kts 246°
2026-05-04 03:07 58.60825 24.45376 35834 ft 430 kts 246°
2026-05-04 03:08 58.58178 24.35115 35829 ft 429 kts 246°
2026-05-04 03:08 58.55521 24.24862 35833 ft 430 kts 246°
2026-05-04 03:09 58.52874 24.14692 35828 ft 430 kts 246°
2026-05-04 03:09 58.50200 24.04467 35831 ft 430 kts 246°
2026-05-04 03:10 58.47515 23.94246 35828 ft 430 kts 245°
2026-05-04 03:10 58.44827 23.84063 35828 ft 429 kts 245°
2026-05-04 03:11 58.42150 23.73964 35829 ft 429 kts 245°
2026-05-04 03:11 58.39450 23.63825 35822 ft 429 kts 245°
2026-05-04 03:12 58.36738 23.53684 35829 ft 429 kts 245°
2026-05-04 03:12 58.34023 23.43579 35828 ft 429 kts 245°
2026-05-04 03:13 58.31316 23.33549 35826 ft 429 kts 245°
2026-05-04 03:13 58.28581 23.23461 35826 ft 430 kts 245°
2026-05-04 03:14 58.25835 23.13374 35826 ft 430 kts 245°
2026-05-04 03:14 58.23079 23.03300 35828 ft 429 kts 244°
2026-05-04 03:15 58.20323 22.93267 35823 ft 429 kts 244°
2026-05-04 03:15 58.17575 22.83308 35827 ft 429 kts 244°
2026-05-04 03:16 58.14800 22.73294 35829 ft 429 kts 244°
2026-05-04 03:16 58.12017 22.63295 35829 ft 429 kts 244°
2026-05-04 03:17 58.09243 22.53373 35826 ft 429 kts 244°
2026-05-04 03:17 58.06448 22.43416 35827 ft 429 kts 244°
2026-05-04 03:18 58.03642 22.33467 35824 ft 429 kts 244°
2026-05-04 03:18 58.00833 22.23546 35820 ft 429 kts 244°
2026-05-04 03:19 57.98029 22.13686 35818 ft 430 kts 243°
2026-05-04 03:19 57.95198 22.03776 35817 ft 430 kts 243°
2026-05-04 03:20 57.92361 21.93882 35814 ft 430 kts 243°
2026-05-04 03:20 57.89537 21.84072 35815 ft 429 kts 243°
2026-05-04 03:21 57.86678 21.74226 35809 ft 430 kts 241°
2026-05-04 03:21 57.82998 21.65339 35823 ft 434 kts 229°
2026-05-04 03:22 57.78427 21.57888 35816 ft 438 kts 220°
2026-05-04 03:22 57.73485 21.51310 35806 ft 439 kts 219°
2026-05-04 03:23 57.68494 21.44735 35813 ft 439 kts 219°
2026-05-04 03:23 57.63515 21.38134 35814 ft 439 kts 219°
2026-05-04 03:24 57.58546 21.31529 35827 ft 439 kts 219°
2026-05-04 03:24 57.54407 21.26035 35831 ft 439 kts 219°
2026-05-04 03:25 57.49433 21.19453 35825 ft 439 kts 219°
2026-05-04 03:25 57.43640 21.11818 35823 ft 440 kts 219°
2026-05-04 03:26 57.38642 21.05254 35810 ft 440 kts 219°
2026-05-04 03:26 57.34488 20.99817 35808 ft 440 kts 219°
2026-05-04 03:27 57.29484 20.93288 35807 ft 440 kts 218°
2026-05-04 03:27 57.23658 20.85713 35815 ft 441 kts 218°
2026-05-04 03:28 57.19487 20.80309 35816 ft 441 kts 218°
2026-05-04 03:28 57.14460 20.73815 35817 ft 441 kts 218°
2026-05-04 03:29 57.09428 20.67338 35819 ft 441 kts 218°
2026-05-04 03:29 57.04392 20.60878 35814 ft 441 kts 218°
2026-05-04 03:30 56.99384 20.54473 35819 ft 442 kts 218°
2026-05-04 03:30 56.94342 20.48047 35821 ft 442 kts 218°
2026-05-04 03:31 56.89291 20.41632 35819 ft 442 kts 218°
2026-05-04 03:31 56.84237 20.35234 35813 ft 442 kts 218°
2026-05-04 03:32 56.79215 20.28898 35816 ft 442 kts 218°
2026-05-04 03:32 56.74157 20.22538 35822 ft 442 kts 218°
2026-05-04 03:33 56.69091 20.16187 35820 ft 442 kts 218°
2026-05-04 03:33 56.64047 20.09887 35821 ft 442 kts 217°
2026-05-04 03:34 56.58979 20.03577 35821 ft 442 kts 217°
2026-05-04 03:34 56.53897 19.97271 35822 ft 443 kts 217°
2026-05-04 03:35 56.48808 19.90976 35818 ft 443 kts 217°
2026-05-04 03:35 56.43751 19.84742 35817 ft 443 kts 217°
2026-05-04 03:36 56.38662 19.78488 35820 ft 443 kts 217°
2026-05-04 03:36 56.33567 19.72248 35819 ft 442 kts 217°
2026-05-04 03:37 56.28464 19.66017 35817 ft 443 kts 217°
2026-05-04 03:37 56.23397 19.59848 35835 ft 443 kts 217°
2026-05-04 03:38 56.18285 19.53654 35814 ft 443 kts 217°
2026-05-04 03:38 56.13164 19.47478 35809 ft 444 kts 217°
2026-05-04 03:39 56.08045 19.41322 35810 ft 443 kts 217°
2026-05-04 03:39 56.02959 19.35222 35819 ft 443 kts 217°
2026-05-04 03:40 55.97840 19.29102 35818 ft 443 kts 216°
2026-05-04 03:40 55.92714 19.22992 35817 ft 443 kts 216°
2026-05-04 03:41 55.87578 19.16890 35818 ft 444 kts 216°
2026-05-04 03:41 55.82482 19.10853 35817 ft 443 kts 216°
2026-05-04 03:42 55.77346 19.04783 35818 ft 443 kts 216°
2026-05-04 03:42 55.72215 18.98716 35818 ft 443 kts 216°
2026-05-04 03:43 55.67078 18.92659 35822 ft 444 kts 216°
2026-05-04 03:43 55.61968 18.86654 35825 ft 444 kts 216°
2026-05-04 03:44 55.56820 18.80624 35821 ft 444 kts 216°
2026-05-04 03:44 55.51669 18.74610 35827 ft 444 kts 216°
2026-05-04 03:45 55.46512 18.68608 35829 ft 444 kts 216°
2026-05-04 03:45 55.41390 18.62665 35828 ft 444 kts 216°
2026-05-04 03:46 55.36230 18.56696 35830 ft 444 kts 216°
2026-05-04 03:46 55.31057 18.50730 35831 ft 445 kts 216°
2026-05-04 03:47 55.25934 18.44841 35831 ft 445 kts 216°
2026-05-04 03:47 55.20856 18.38754 35834 ft 444 kts 217°
2026-05-04 03:48 55.15800 18.32523 35835 ft 444 kts 217°
2026-05-04 03:48 55.10763 18.26350 35834 ft 444 kts 217°
2026-05-04 03:49 55.05696 18.20193 35838 ft 444 kts 217°
2026-05-04 03:49 55.00615 18.14050 35841 ft 444 kts 217°
2026-05-04 03:50 54.95536 18.07929 35844 ft 444 kts 217°
2026-05-04 03:50 54.90448 18.01818 35847 ft 444 kts 217°
2026-05-04 03:51 54.85396 17.95766 35849 ft 444 kts 217°
2026-05-04 03:51 54.80304 17.89686 35850 ft 444 kts 217°
2026-05-04 03:52 54.75216 17.83630 35854 ft 444 kts 216°
2026-05-04 03:52 54.70110 17.77571 35856 ft 444 kts 216°
2026-05-04 03:53 54.65071 17.71610 35866 ft 444 kts 216°
2026-05-04 03:53 54.59965 17.65588 35864 ft 445 kts 216°
2026-05-04 03:54 54.54844 17.59567 35870 ft 445 kts 216°
2026-05-04 03:54 54.49759 17.53607 35867 ft 445 kts 216°
2026-05-04 03:55 54.44635 17.47617 35869 ft 445 kts 216°
2026-05-04 03:55 54.39516 17.41651 35875 ft 445 kts 216°
2026-05-04 03:56 54.34421 17.35593 35874 ft 445 kts 217°
2026-05-04 03:56 54.29368 17.29433 35880 ft 445 kts 217°
2026-05-04 03:57 54.24361 17.23343 35880 ft 445 kts 217°
2026-05-04 03:57 54.19302 17.17230 35880 ft 445 kts 217°
2026-05-04 03:58 54.11705 17.08106 35889 ft 445 kts 217°
2026-05-04 03:58 54.06633 17.02039 35887 ft 445 kts 217°
2026-05-04 03:59 54.01603 16.96041 35890 ft 446 kts 217°
2026-05-04 03:59 53.96519 16.89996 35893 ft 445 kts 217°
2026-05-04 04:00 53.91437 16.83972 35894 ft 445 kts 217°
2026-05-04 04:00 53.86362 16.77973 35897 ft 446 kts 217°
2026-05-04 04:01 53.81304 16.72014 35901 ft 446 kts 217°
2026-05-04 04:01 53.76217 16.66038 35901 ft 445 kts 217°
2026-05-04 04:02 53.71123 16.60072 35907 ft 445 kts 216°
2026-05-04 04:02 53.66042 16.54138 35911 ft 445 kts 216°
2026-05-04 04:03 53.60981 16.48246 35894 ft 446 kts 217°
2026-05-04 04:03 53.55867 16.42309 35910 ft 445 kts 216°
2026-05-04 04:04 53.50777 16.36418 35921 ft 444 kts 216°
2026-05-04 04:04 53.45715 16.30577 35915 ft 444 kts 216°
2026-05-04 04:05 53.40626 16.24722 35919 ft 444 kts 216°
2026-05-04 04:05 53.35520 16.18865 35921 ft 445 kts 216°
2026-05-04 04:06 53.30408 16.13018 35920 ft 446 kts 216°
2026-05-04 04:06 53.25318 16.07213 35927 ft 446 kts 216°
2026-05-04 04:07 53.20190 16.01383 35920 ft 446 kts 216°
2026-05-04 04:07 53.15060 15.95567 35928 ft 446 kts 216°
2026-05-04 04:08 53.09927 15.89765 35930 ft 446 kts 216°
2026-05-04 04:08 53.04826 15.84016 35928 ft 446 kts 216°
2026-05-04 04:09 52.99688 15.78242 35948 ft 446 kts 216°
2026-05-04 04:09 52.94534 15.72467 35944 ft 447 kts 216°
2026-05-04 04:10 52.89416 15.66749 35942 ft 447 kts 215°
2026-05-04 04:10 52.84257 15.61002 35941 ft 447 kts 215°
2026-05-04 04:11 52.79090 15.55263 35938 ft 447 kts 215°
2026-05-04 04:11 52.73923 15.49541 35941 ft 448 kts 215°
2026-05-04 04:12 52.68748 15.43826 35935 ft 448 kts 215°
2026-05-04 04:12 52.63568 15.38122 35939 ft 448 kts 215°
2026-05-04 04:13 52.58417 15.32467 35942 ft 448 kts 215°
2026-05-04 04:13 52.53220 15.26777 35942 ft 449 kts 215°
2026-05-04 04:14 52.48022 15.21103 35942 ft 449 kts 215°
2026-05-04 04:14 52.42848 15.15470 35944 ft 450 kts 215°
2026-05-04 04:15 52.37633 15.09811 35938 ft 450 kts 215°
2026-05-04 04:15 52.32410 15.04157 35947 ft 450 kts 215°
2026-05-04 04:16 52.27171 14.98503 35942 ft 451 kts 215°
2026-05-04 04:16 52.21972 14.92908 35947 ft 451 kts 215°
2026-05-04 04:17 52.16723 14.87275 35949 ft 452 kts 215°
2026-05-04 04:17 52.11477 14.81659 35951 ft 452 kts 214°
2026-05-04 04:18 52.06209 14.76052 35950 ft 453 kts 213°
2026-05-04 04:18 52.00725 14.71121 35963 ft 454 kts 210°
2026-05-04 04:19 51.95139 14.66349 35958 ft 455 kts 210°
2026-05-04 04:19 51.89546 14.61562 35956 ft 455 kts 210°
2026-05-04 04:20 51.83987 14.56791 35956 ft 455 kts 210°
2026-05-04 04:20 51.78388 14.51993 35958 ft 456 kts 210°
2026-05-04 04:21 51.72778 14.47197 35959 ft 456 kts 210°
2026-05-04 04:21 51.67168 14.42416 35961 ft 457 kts 210°
2026-05-04 04:22 51.61539 14.37632 35959 ft 457 kts 210°
2026-05-04 04:22 51.55943 14.32891 35964 ft 458 kts 210°
2026-05-04 04:23 51.50304 14.28126 35964 ft 458 kts 210°
2026-05-04 04:23 51.44658 14.23368 35969 ft 459 kts 210°
2026-05-04 04:24 51.39036 14.18644 35969 ft 459 kts 210°
2026-05-04 04:24 51.33374 14.13900 35970 ft 460 kts 210°
2026-05-04 04:25 51.27710 14.09167 35966 ft 460 kts 210°
2026-05-04 04:25 51.22031 14.04435 35974 ft 460 kts 210°
2026-05-04 04:26 51.16387 13.99745 35987 ft 461 kts 210°
2026-05-04 04:26 51.10702 13.95035 35991 ft 461 kts 209°
2026-05-04 04:27 51.05011 13.90333 35992 ft 461 kts 209°
2026-05-04 04:27 50.99315 13.85639 35991 ft 462 kts 209°
2026-05-04 04:28 50.93641 13.80977 35990 ft 462 kts 209°
2026-05-04 04:28 50.87931 13.76297 35985 ft 463 kts 209°
2026-05-04 04:29 50.82210 13.71621 35987 ft 463 kts 209°
2026-05-04 04:29 50.76520 13.66982 35986 ft 463 kts 209°
2026-05-04 04:30 50.70717 13.62540 35995 ft 465 kts 204°
2026-05-04 04:30 50.64548 13.59404 35998 ft 467 kts 199°
2026-05-04 04:31 50.58324 13.56453 35993 ft 467 kts 199°
2026-05-04 04:31 50.52121 13.53473 36017 ft 461 kts 199°
2026-05-04 04:32 50.46087 13.50554 35996 ft 455 kts 199°
2026-05-04 04:32 50.40042 13.47629 35993 ft 455 kts 199°
2026-05-04 04:33 50.33988 13.44709 35997 ft 456 kts 199°
2026-05-04 04:33 50.27917 13.41791 35998 ft 456 kts 199°
2026-05-04 04:34 50.21883 13.38899 36000 ft 456 kts 199°
2026-05-04 04:34 50.15812 13.35996 36003 ft 457 kts 199°
2026-05-04 04:35 50.09730 13.33096 36004 ft 457 kts 199°
2026-05-04 04:35 50.03664 13.30134 36004 ft 457 kts 200°
2026-05-04 04:36 49.97649 13.27117 35998 ft 457 kts 200°
2026-05-04 04:36 49.91579 13.24085 36008 ft 458 kts 200°
2026-05-04 04:37 49.79417 13.18065 36014 ft 459 kts 199°
2026-05-04 04:38 49.73364 13.15084 36013 ft 458 kts 199°
2026-05-04 04:38 49.70345 13.13600 35843 ft 455 kts 200°
2026-05-04 04:38 49.67317 13.12112 35140 ft 457 kts 200°
2026-05-04 04:39 49.64295 13.10629 34390 ft 457 kts 200°
2026-05-04 04:39 49.61261 13.09142 33482 ft 458 kts 200°
2026-05-04 04:39 49.58218 13.07653 32538 ft 460 kts 200°
2026-05-04 04:39 49.55164 13.06160 31589 ft 461 kts 200°
2026-05-04 04:40 49.52141 13.04684 30691 ft 463 kts 200°
2026-05-04 04:40 49.49084 13.03195 30039 ft 459 kts 200°
2026-05-04 04:40 49.46047 13.01718 29264 ft 456 kts 200°
2026-05-04 04:40 49.43046 13.00248 28587 ft 451 kts 201°
2026-05-04 04:41 49.40140 12.98525 27960 ft 444 kts 206°
2026-05-04 04:41 49.37373 12.96479 27337 ft 439 kts 208°
2026-05-04 04:41 49.34637 12.94434 26691 ft 436 kts 208°
2026-05-04 04:41 49.31914 12.92418 26063 ft 433 kts 207°
2026-05-04 04:42 49.29205 12.90431 25462 ft 431 kts 207°
2026-05-04 04:42 49.26541 12.88491 24855 ft 428 kts 207°
2026-05-04 04:42 49.23855 12.86540 24248 ft 427 kts 207°
2026-05-04 04:42 49.21176 12.84596 23631 ft 425 kts 207°
2026-05-04 04:43 49.18508 12.82662 22925 ft 424 kts 206°
2026-05-04 04:43 49.15853 12.80740 22283 ft 421 kts 206°
2026-05-04 04:43 49.13220 12.78834 21672 ft 417 kts 206°
2026-05-04 04:43 49.10639 12.76967 21087 ft 414 kts 206°
2026-05-04 04:44 49.08048 12.75098 20493 ft 411 kts 206°
2026-05-04 04:44 49.05475 12.73246 19917 ft 408 kts 206°
2026-05-04 04:44 49.02916 12.71410 19332 ft 405 kts 206°
2026-05-04 04:44 49.00378 12.69592 18752 ft 402 kts 206°
2026-05-04 04:45 48.97853 12.67785 18174 ft 400 kts 205°
2026-05-04 04:45 48.95337 12.65985 17526 ft 398 kts 205°
2026-05-04 04:45 48.92845 12.64205 16928 ft 394 kts 205°
2026-05-04 04:47 48.78323 12.53893 13565 ft 369 kts 206°
2026-05-04 04:47 48.76073 12.52361 12992 ft 341 kts 202°
2026-05-04 04:47 48.73942 12.51194 12509 ft 319 kts 200°
2026-05-04 04:47 48.71896 12.50117 12091 ft 308 kts 200°
2026-05-04 04:48 48.69890 12.49054 11677 ft 298 kts 200°
2026-05-04 04:49 48.62486 12.44896 10389 ft 273 kts 217°
2026-05-04 04:49 48.61295 12.42672 9895 ft 277 kts 244°
2026-05-04 04:49 48.60604 12.39967 9584 ft 276 kts 251°
2026-05-04 04:49 48.60221 12.37168 9246 ft 276 kts 261°
2026-05-04 04:50 48.60030 12.34290 8931 ft 275 kts 263°
2026-05-04 04:50 48.59852 12.31422 8609 ft 274 kts 263°
2026-05-04 04:50 48.59664 12.28573 8293 ft 272 kts 263°
2026-05-04 04:50 48.59499 12.25728 7973 ft 271 kts 265°
2026-05-04 04:51 48.59399 12.22893 7664 ft 270 kts 266°
2026-05-04 04:51 48.59309 12.20061 7363 ft 269 kts 266°
2026-05-04 04:51 48.59218 12.17246 7070 ft 268 kts 266°
2026-05-04 04:51 48.59125 12.14473 6777 ft 267 kts 266°
2026-05-04 04:52 48.59029 12.11690 6494 ft 265 kts 266°
2026-05-04 04:52 48.58930 12.08907 6187 ft 264 kts 266°
2026-05-04 04:52 48.58828 12.06136 5868 ft 265 kts 266°
2026-05-04 04:52 48.58726 12.03366 5575 ft 264 kts 266°
2026-05-04 04:53 48.58625 12.00603 5290 ft 263 kts 266°
2026-05-04 04:53 48.58522 11.97857 5074 ft 260 kts 266°
2026-05-04 04:53 48.58419 11.95159 5055 ft 261 kts 267°
2026-05-04 04:53 48.58316 11.92419 5006 ft 262 kts 267°
2026-05-04 04:54 48.58211 11.89672 5011 ft 263 kts 267°
2026-05-04 04:54 48.57997 11.86948 4992 ft 261 kts 252°
2026-05-04 04:54 48.57040 11.84631 5010 ft 266 kts 223°
2026-05-04 04:54 48.55425 11.83259 5009 ft 271 kts 195°
2026-05-04 04:55 48.53550 11.83163 4998 ft 273 kts 168°
2026-05-04 04:55 48.51883 11.84406 4999 ft 268 kts 138°
2026-05-04 04:55 48.50806 11.86670 5008 ft 266 kts 112°
2026-05-04 04:55 48.50186 11.89250 5006 ft 266 kts 109°
2026-05-04 04:56 48.49583 11.91887 5010 ft 266 kts 109°
2026-05-04 04:56 48.48983 11.94521 4997 ft 266 kts 109°
2026-05-04 04:56 48.48383 11.97151 5016 ft 265 kts 109°
2026-05-04 04:56 48.47780 11.99779 4998 ft 265 kts 109°
2026-05-04 04:57 48.47170 12.02409 5007 ft 266 kts 109°
2026-05-04 04:57 48.46559 12.05048 5007 ft 267 kts 110°
2026-05-04 04:57 48.45945 12.07679 4995 ft 266 kts 110°
2026-05-04 04:57 48.45340 12.10271 5015 ft 266 kts 110°
2026-05-04 04:58 48.44724 12.12896 4998 ft 266 kts 110°
2026-05-04 04:58 48.43992 12.15404 4989 ft 259 kts 129°
2026-05-04 04:58 48.42540 12.16935 5010 ft 259 kts 167°
2026-05-04 04:58 48.40767 12.16825 4997 ft 259 kts 204°
2026-05-04 04:59 48.39444 12.15180 4987 ft 244 kts 241°
2026-05-04 04:59 48.38927 12.12868 5001 ft 228 kts 261°
2026-05-04 04:59 48.38769 12.10565 4984 ft 214 kts 266°
2026-05-04 04:59 48.38677 12.08425 4919 ft 205 kts 265°
2026-05-04 05:00 48.38539 12.06261 4620 ft 208 kts 264°
2026-05-04 05:00 48.38381 12.04110 4350 ft 206 kts 264°
2026-05-04 05:00 48.38056 11.99870 3846 ft 201 kts 265°
2026-05-04 05:01 48.37897 11.97794 3535 ft 195 kts 265°
2026-05-04 05:01 48.37741 11.95744 3301 ft 200 kts 266°
2026-05-04 05:01 48.37580 11.93728 3027 ft 188 kts 266°
2026-05-04 05:01 48.37437 11.91857 2767 ft 174 kts 266°
2026-05-04 05:02 48.37304 11.90095 2573 ft 166 kts 266°
2026-05-04 05:02 48.37178 11.88450 2328 ft 153 kts 265°
2026-05-04 05:02 48.37057 11.86893 2140 ft 148 kts 264°
2026-05-04 05:02 48.36939 11.85364 1923 ft 146 kts 263°
2026-05-04 05:03 48.36825 11.83861 1729 ft 146 kts 263°
2026-05-04 05:03 48.36709 11.82357 1560 ft 141 kts 262°
2026-05-04 05:04 48.36482 11.79430 1487 ft 49 kts 263°
2026-05-04 05:04 48.36421 11.78970 1475 ft 40 kts 244°
2026-05-04 05:04 48.36306 11.78717 1478 ft 25 kts 234°
2026-05-04 05:06 48.36084 11.79200 1486 ft 17 kts 83°
2026-05-04 05:06 48.36048 11.79320 1477 ft 12 kts 163°
2026-05-04 05:06 48.35929 11.79353 1477 ft 19 kts 159°
2026-05-04 05:07 48.35801 11.79394 1483 ft 19 kts 173°
2026-05-04 05:07 48.35667 11.79416 1477 ft 19 kts 173°
2026-05-04 05:07 48.35534 11.79439 1490 ft 19 kts 173°
2026-05-04 05:09 48.35099 11.79369 1476 ft 0 kts 263°